owner,sensor,date,latitude,longitude,vertical_datum,wind_speed,wind_to_direction,wind_speed_of_gust,qcFlag 
TABS,ioos:station:wmo:42047:1,2008-01-01T00:00:00Z,27.8966,-93.5973,4.0,0.465725241,75.06819682,1.13,'11111222,11111222,11111222' 
TABS,ioos:station:wmo:42047:1,2008-01-01T00:30:00Z,27.8966,-93.5973,4.0,0.421900462,84.55925977,0.94,'11111222,11111222,11111222' 
TABS,ioos:station:wmo:42047:1,2008-01-01T01:00:00Z,27.8966,-93.5973,4.0,1.032327467,38.31279062,1.65,'11111222,11111222,11111222' 
TABS,ioos:station:wmo:42047:1,2008-01-01T01:30:00Z,27.8966,-93.5973,4.0,1.210784869,30.80116349,1.84,'11111222,11111222,11111222' 
TABS,ioos:station:wmo:42047:1,2008-01-01T02:00:00Z,27.8966,-93.5973,4.0,1.29247824,26.16827527,2.11,'11111222,11111222,11111222' 
TABS,ioos:station:wmo:42047:1,2008-01-01T02:30:00Z,27.8966,-93.5973,4.0,1.275343091,24.55522948,1.94,'11111222,11111222,11111222' 
TABS,ioos:station:wmo:42047:1,2008-01-01T03:00:00Z,27.8966,-93.5973,4.0,2.057036704,355.2592901,2.93,'11111222,11111222,11111222' 
TABS,ioos:station:wmo:42047:1,2008-01-01T03:30:00Z,27.8966,-93.5973,4.0,3.048212591,349.7958397,4.67,'11111222,11111222,11111222' 
TABS,ioos:station:wmo:42047:1,2008-01-01T04:00:00Z,27.8966,-93.5973,4.0,4.528664262,356.4550314,5.83,'11111222,11111222,11111222' 
TABS,ioos:station:wmo:42047:1,2008-01-01T04:30:00Z,27.8966,-93.5973,4.0,4.890010225,0.116958387,6.23,'11111222,11111222,11111222' 
TABS,ioos:station:wmo:42047:1,2008-01-01T05:00:00Z,27.8966,-93.5973,4.0,4.877478857,3.173096173,6.1,'11111222,11111222,11111222' 
TABS,ioos:station:wmo:42047:1,2008-01-01T05:30:00Z,27.8966,-93.5973,4.0,5.430745805,0.949354177,6.49,'11111222,11111222,11111222' 
TABS,ioos:station:wmo:42047:1,2008-01-01T06:00:00Z,27.8966,-93.5973,4.0,5.680316893,359.3945764,7.38,'11111222,11144222,11111222' 
TABS,ioos:station:wmo:42047:1,2008-01-01T06:30:00Z,27.8966,-93.5973,4.0,8.760468024,355.2198648,14.16,'11111222,11111222,11111222' 
TABS,ioos:station:wmo:42047:1,2008-01-01T07:00:00Z,27.8966,-93.5973,4.0,12.94599552,3.631329611,15.18,'11111222,11111222,11111222' 
TABS,ioos:station:wmo:42047:1,2008-01-01T07:30:00Z,27.8966,-93.5973,4.0,13.36923708,11.30129075,16.63,'11111222,11111222,11111222' 
TABS,ioos:station:wmo:42047:1,2008-01-01T08:00:00Z,27.8966,-93.5973,4.0,14.6950638,11.50085876,17.51,'11111222,11111222,11111222' 
TABS,ioos:station:wmo:42047:1,2008-01-01T08:30:00Z,27.8966,-93.5973,4.0,14.80562393,15.31257209,18.08,'11111222,11111222,11111222' 
TABS,ioos:station:wmo:42047:1,2008-01-01T09:00:00Z,27.8966,-93.5973,4.0,14.07817105,15.74389586,17.65,'11111222,11111222,11111222' 
TABS,ioos:station:wmo:42047:1,2008-01-01T09:30:00Z,27.8966,-93.5973,4.0,14.31122986,14.90022489,17.23,'11111222,11111222,11111222' 
TABS,ioos:station:wmo:42047:1,2008-01-01T10:00:00Z,27.8966,-93.5973,4.0,14.7745186,16.03037776,18.08,'11111222,11111222,11111222' 
TABS,ioos:station:wmo:42047:1,2008-01-01T10:30:00Z,27.8966,-93.5973,4.0,14.85010774,15.78615593,18.26,'11111222,11111222,11111222' 
TABS,ioos:station:wmo:42047:1,2008-01-01T11:00:00Z,27.8966,-93.5973,4.0,15.43517088,18.23514147,19.18,'11111222,11111222,11111222' 
TABS,ioos:station:wmo:42047:1,2008-01-01T11:30:00Z,27.8966,-93.5973,4.0,14.68635421,16.65789044,18.15,'11111222,11111222,11111222' 
TABS,ioos:station:wmo:42047:1,2008-01-01T12:00:00Z,27.8966,-93.5973,4.0,14.43580618,18.37193992,20.12,'11111222,11111222,11111222' 
TABS,ioos:station:wmo:42047:1,2008-01-01T12:30:00Z,27.8966,-93.5973,4.0,14.25746822,15.33241338,17.64,'11111222,11111222,11111222' 
TABS,ioos:station:wmo:42047:1,2008-01-01T13:00:00Z,27.8966,-93.5973,4.0,13.73495541,15.58415427,17.49,'11111222,11111222,11111222' 
TABS,ioos:station:wmo:42047:1,2008-01-01T13:30:00Z,27.8966,-93.5973,4.0,14.36113157,14.55852663,17.49,'11111222,11111222,11111222' 
TABS,ioos:station:wmo:42047:1,2008-01-01T14:00:00Z,27.8966,-93.5973,4.0,14.33597573,16.99375826,17.51,'11111222,11111222,11111222' 
TABS,ioos:station:wmo:42047:1,2008-01-01T14:30:00Z,27.8966,-93.5973,4.0,13.89425781,16.81748824,17.93,'11111222,11111222,11111222' 
TABS,ioos:station:wmo:42047:1,2008-01-01T15:00:00Z,27.8966,-93.5973,4.0,13.86683093,14.74752401,17.24,'11111222,11111222,11111222' 
TABS,ioos:station:wmo:42047:1,2008-01-01T15:30:00Z,27.8966,-93.5973,4.0,14.17293548,15.76190045,17.85,'11111222,11111222,11111222' 
TABS,ioos:station:wmo:42047:1,2008-01-01T16:00:00Z,27.8966,-93.5973,4.0,13.5382606,15.90445523,17.12,'11111222,11111222,11111222' 
TABS,ioos:station:wmo:42047:1,2008-01-01T16:30:00Z,27.8966,-93.5973,4.0,13.71168844,18.27612838,18.2,'11111222,11111222,11111222' 
TABS,ioos:station:wmo:42047:1,2008-01-01T17:00:00Z,27.8966,-93.5973,4.0,13.29688685,13.30442827,17.28,'11111222,11111222,11111222' 
TABS,ioos:station:wmo:42047:1,2008-01-01T17:30:00Z,27.8966,-93.5973,4.0,14.07028074,12.81124538,18.02,'11111222,11111222,11111222' 
TABS,ioos:station:wmo:42047:1,2008-01-01T18:00:00Z,27.8966,-93.5973,4.0,13.64351861,15.2990708,16.85,'11111222,11111222,11111222' 
TABS,ioos:station:wmo:42047:1,2008-01-01T18:30:00Z,27.8966,-93.5973,4.0,14.04594247,13.46217247,17.55,'11111222,11111222,11111222' 
TABS,ioos:station:wmo:42047:1,2008-01-01T19:00:00Z,27.8966,-93.5973,4.0,13.36045284,14.92012207,17.61,'11111222,11111222,11111222' 
TABS,ioos:station:wmo:42047:1,2008-01-01T19:30:00Z,27.8966,-93.5973,4.0,13.19569627,17.2812475,16.62,'11111222,11111222,11111222' 
TABS,ioos:station:wmo:42047:1,2008-01-01T20:00:00Z,27.8966,-93.5973,4.0,13.28597757,10.582332,17.43,'11111222,11111222,11111222' 
TABS,ioos:station:wmo:42047:1,2008-01-01T20:30:00Z,27.8966,-93.5973,4.0,13.15967325,16.92001912,16.82,'11111222,11111222,11111222' 
TABS,ioos:station:wmo:42047:1,2008-01-01T21:00:00Z,27.8966,-93.5973,4.0,13.35482684,10.04751041,16.91,'11111222,11111222,11111222' 
TABS,ioos:station:wmo:42047:1,2008-01-01T21:30:00Z,27.8966,-93.5973,4.0,12.88413365,9.155034107,16.24,'11111222,11111222,11111222' 
TABS,ioos:station:wmo:42047:1,2008-01-01T22:00:00Z,27.8966,-93.5973,4.0,12.7376607,9.580407772,16.65,'11111222,11111222,11111222' 
TABS,ioos:station:wmo:42047:1,2008-01-01T22:30:00Z,27.8966,-93.5973,4.0,12.84226226,14.01435877,17.58,'11111222,11111222,11111222' 
TABS,ioos:station:wmo:42047:1,2008-01-01T23:00:00Z,27.8966,-93.5973,4.0,12.64724871,9.328030122,16.94,'11111222,11111222,11111222' 
TABS,ioos:station:wmo:42047:1,2008-01-01T23:30:00Z,27.8966,-93.5973,4.0,12.82225019,6.492938711,18.44,'11111222,11111222,11111222' 
TABS,ioos:station:wmo:42047:1,2008-01-02T00:00:00Z,27.8966,-93.5973,4.0,12.53871604,9.409504149,15.98,'11111222,11111222,11111222' 
TABS,ioos:station:wmo:42047:1,2008-01-02T00:30:00Z,27.8966,-93.5973,4.0,12.76445847,10.51739695,16.43,'11111222,11111222,11111222' 
TABS,ioos:station:wmo:42047:1,2008-01-02T01:00:00Z,27.8966,-93.5973,4.0,12.66248791,10.51101619,16.02,'11111222,11111222,11111222' 
TABS,ioos:station:wmo:42047:1,2008-01-02T01:30:00Z,27.8966,-93.5973,4.0,11.84972574,2.321314702,17.19,'11111222,11111222,11111222' 
TABS,ioos:station:wmo:42047:1,2008-01-02T02:00:00Z,27.8966,-93.5973,4.0,12.59003574,359.8632632,15.97,'11111222,11144222,11111222' 
TABS,ioos:station:wmo:42047:1,2008-01-02T02:30:00Z,27.8966,-93.5973,4.0,11.72362145,5.481810417,14.83,'11111222,11111222,11111222' 
TABS,ioos:station:wmo:42047:1,2008-01-02T03:00:00Z,27.8966,-93.5973,4.0,11.66389729,5.509967355,16.58,'11111222,11111222,11111222' 
TABS,ioos:station:wmo:42047:1,2008-01-02T03:30:00Z,27.8966,-93.5973,4.0,11.4437756,5.012891574,14.67,'11111222,11111222,11111222' 
TABS,ioos:station:wmo:42047:1,2008-01-02T04:00:00Z,27.8966,-93.5973,4.0,11.62826298,7.063673897,14.51,'11111222,11111222,11111222' 
TABS,ioos:station:wmo:42047:1,2008-01-02T04:30:00Z,27.8966,-93.5973,4.0,11.36079663,7.637740142,15.55,'11111222,11111222,11111222' 
TABS,ioos:station:wmo:42047:1,2008-01-02T05:00:00Z,27.8966,-93.5973,4.0,11.15121518,2.569682617,14.24,'11111222,11111222,11111222' 
TABS,ioos:station:wmo:42047:1,2008-01-02T05:30:00Z,27.8966,-93.5973,4.0,11.20087497,0.715947812,15.6,'11111222,11111222,11111222' 
TABS,ioos:station:wmo:42047:1,2008-01-02T06:00:00Z,27.8966,-93.5973,4.0,11.26128323,359.1348233,15.94,'11111222,11144222,11111222' 
TABS,ioos:station:wmo:42047:1,2008-01-02T06:30:00Z,27.8966,-93.5973,4.0,12.25830331,346.5077238,16.57,'11111222,11111222,11111222' 
TABS,ioos:station:wmo:42047:1,2008-01-02T07:00:00Z,27.8966,-93.5973,4.0,12.5614808,351.392361,17.07,'11111222,11111222,11111222' 
TABS,ioos:station:wmo:42047:1,2008-01-02T07:30:00Z,27.8966,-93.5973,4.0,12.65348964,355.8303036,17.69,'11111222,11111222,11111222' 
TABS,ioos:station:wmo:42047:1,2008-01-02T08:00:00Z,27.8966,-93.5973,4.0,12.99089681,355.4522574,16.44,'11111222,11111222,11111222' 
TABS,ioos:station:wmo:42047:1,2008-01-02T08:30:00Z,27.8966,-93.5973,4.0,12.73556045,351.3288972,17.14,'11111222,11111222,11111222' 
TABS,ioos:station:wmo:42047:1,2008-01-02T09:00:00Z,27.8966,-93.5973,4.0,12.92540522,356.4068729,16.05,'11111222,11111222,11111222' 
TABS,ioos:station:wmo:42047:1,2008-01-02T09:30:00Z,27.8966,-93.5973,4.0,12.62886377,355.5036648,16.81,'11111222,11111222,11111222' 
TABS,ioos:station:wmo:42047:1,2008-01-02T10:00:00Z,27.8966,-93.5973,4.0,12.98827548,354.1224107,17.45,'11111222,11111222,11111222' 
TABS,ioos:station:wmo:42047:1,2008-01-02T10:30:00Z,27.8966,-93.5973,4.0,12.97342283,357.3932227,17.97,'11111222,11111222,11111222' 
TABS,ioos:station:wmo:42047:1,2008-01-02T11:00:00Z,27.8966,-93.5973,4.0,13.72823368,356.3245344,17.29,'11111222,11111222,11111222' 
TABS,ioos:station:wmo:42047:1,2008-01-02T11:30:00Z,27.8966,-93.5973,4.0,13.58357832,356.6234292,17.45,'11111222,11111222,11111222' 
TABS,ioos:station:wmo:42047:1,2008-01-02T12:00:00Z,27.8966,-93.5973,4.0,14.3664331,5.511950512,18.2,'11111222,11111222,11111222' 
TABS,ioos:station:wmo:42047:1,2008-01-02T12:30:00Z,27.8966,-93.5973,4.0,13.09114204,2.363863599,17.17,'11111222,11111222,11111222' 
TABS,ioos:station:wmo:42047:1,2008-01-02T13:00:00Z,27.8966,-93.5973,4.0,14.1718665,0.929700717,17.52,'11111222,11111222,11111222' 
TABS,ioos:station:wmo:42047:1,2008-01-02T13:30:00Z,27.8966,-93.5973,4.0,13.98906001,2.991043233,17.33,'11111222,11111222,11111222' 
TABS,ioos:station:wmo:42047:1,2008-01-02T14:00:00Z,27.8966,-93.5973,4.0,13.62591648,3.534148415,18.95,'11111222,11111222,11111222' 
TABS,ioos:station:wmo:42047:1,2008-01-02T14:30:00Z,27.8966,-93.5973,4.0,12.84814773,3.793090792,16.55,'11111222,11111222,11111222' 
TABS,ioos:station:wmo:42047:1,2008-01-02T15:00:00Z,27.8966,-93.5973,4.0,13.48756464,7.240708162,18.28,'11111222,11111222,11111222' 
TABS,ioos:station:wmo:42047:1,2008-01-02T15:30:00Z,27.8966,-93.5973,4.0,12.31867282,6.47864682,15.93,'11111222,11111222,11111222' 
TABS,ioos:station:wmo:42047:1,2008-01-02T16:00:00Z,27.8966,-93.5973,4.0,12.33353153,9.049678075,16.35,'11111222,11111222,11111222' 
TABS,ioos:station:wmo:42047:1,2008-01-02T16:30:00Z,27.8966,-93.5973,4.0,11.79495655,7.648985473,14.87,'11111222,11111222,11111222' 
TABS,ioos:station:wmo:42047:1,2008-01-02T17:00:00Z,27.8966,-93.5973,4.0,11.23194106,9.118252786,14.84,'11111222,11111222,11111222' 
TABS,ioos:station:wmo:42047:1,2008-01-02T17:30:00Z,27.8966,-93.5973,4.0,11.3669345,11.4678612,14.83,'11111222,11111222,11111222' 
TABS,ioos:station:wmo:42047:1,2008-01-02T18:00:00Z,27.8966,-93.5973,4.0,11.12512921,2.988208457,13.85,'11111222,11111222,11111222' 
TABS,ioos:station:wmo:42047:1,2008-01-02T18:30:00Z,27.8966,-93.5973,4.0,10.70007477,7.842109703,14.02,'11111222,11111222,11111222' 
TABS,ioos:station:wmo:42047:1,2008-01-02T19:00:00Z,27.8966,-93.5973,4.0,10.71710782,8.477664824,14.09,'11111222,11111222,11111222' 
TABS,ioos:station:wmo:42047:1,2008-01-02T19:30:00Z,27.8966,-93.5973,4.0,10.99920906,2.344525272,14.38,'11111222,11111222,11111222' 
TABS,ioos:station:wmo:42047:1,2008-01-02T20:00:00Z,27.8966,-93.5973,4.0,10.96496694,7.546073148,13.91,'11111222,11111222,11111222' 
TABS,ioos:station:wmo:42047:1,2008-01-02T20:30:00Z,27.8966,-93.5973,4.0,11.41003944,11.27030359,14.57,'11111222,11111222,11111222' 
TABS,ioos:station:wmo:42047:1,2008-01-02T21:00:00Z,27.8966,-93.5973,4.0,10.64467942,7.231609232,13.83,'11111222,11111222,11111222' 
TABS,ioos:station:wmo:42047:1,2008-01-02T21:30:00Z,27.8966,-93.5973,4.0,10.3080551,10.96086794,14.14,'11111222,11111222,11111222' 
TABS,ioos:station:wmo:42047:1,2008-01-02T22:00:00Z,27.8966,-93.5973,4.0,10.36313177,7.261941919,16.07,'11111222,11111222,11111222' 
TABS,ioos:station:wmo:42047:1,2008-01-02T22:30:00Z,27.8966,-93.5973,4.0,9.936890862,2.133685428,13.54,'11111222,11111222,11111222' 
TABS,ioos:station:wmo:42047:1,2008-01-02T23:00:00Z,27.8966,-93.5973,4.0,10.26501827,11.74755976,13.09,'11111222,11111222,11111222' 
TABS,ioos:station:wmo:42047:1,2008-01-02T23:30:00Z,27.8966,-93.5973,4.0,10.43301011,7.656109196,13.68,'11111222,11111222,11111222' 
TABS,ioos:station:wmo:42047:1,2008-01-03T00:00:00Z,27.8966,-93.5973,4.0,11.26625049,6.216412036,14.44,'11111222,11111222,11111222' 
TABS,ioos:station:wmo:42047:1,2008-01-03T00:30:00Z,27.8966,-93.5973,4.0,9.96094875,10.9374314,12.62,'11111222,11111222,11111222' 
TABS,ioos:station:wmo:42047:1,2008-01-03T01:00:00Z,27.8966,-93.5973,4.0,10.37054483,7.145347407,12.84,'11111222,11111222,11111222' 
TABS,ioos:station:wmo:42047:1,2008-01-03T01:30:00Z,27.8966,-93.5973,4.0,10.31773716,11.51661679,14.18,'11111222,11111222,11111222' 
TABS,ioos:station:wmo:42047:1,2008-01-03T02:00:00Z,27.8966,-93.5973,4.0,9.820005092,16.20161038,12.42,'11111222,11111222,11111222' 
TABS,ioos:station:wmo:42047:1,2008-01-03T02:30:00Z,27.8966,-93.5973,4.0,9.583204057,14.68854197,12.58,'11111222,11111222,11111222' 
TABS,ioos:station:wmo:42047:1,2008-01-03T03:00:00Z,27.8966,-93.5973,4.0,9.345613945,17.56224017,13.33,'11111222,11111222,11111222' 
TABS,ioos:station:wmo:42047:1,2008-01-03T03:30:00Z,27.8966,-93.5973,4.0,9.461257844,22.03730148,12.77,'11111222,11111222,11111222' 
TABS,ioos:station:wmo:42047:1,2008-01-03T04:00:00Z,27.8966,-93.5973,4.0,8.530041032,20.30421577,12.37,'11111222,11111222,11111222' 
TABS,ioos:station:wmo:42047:1,2008-01-03T04:30:00Z,27.8966,-93.5973,4.0,8.673851509,30.02317079,12.23,'11111222,11111222,11111222' 
TABS,ioos:station:wmo:42047:1,2008-01-03T05:00:00Z,27.8966,-93.5973,4.0,8.876237942,21.82512112,12.36,'11111222,11111222,11111222' 
TABS,ioos:station:wmo:42047:1,2008-01-03T05:30:00Z,27.8966,-93.5973,4.0,8.22505927,37.78915056,11.39,'11111222,11111222,11111222' 
TABS,ioos:station:wmo:42047:1,2008-01-03T06:00:00Z,27.8966,-93.5973,4.0,8.43950828,31.18469128,11.75,'11111222,11111222,11111222' 
TABS,ioos:station:wmo:42047:1,2008-01-03T06:30:00Z,27.8966,-93.5973,4.0,8.610052265,37.06923656,11.45,'11111222,11111222,11111222' 
TABS,ioos:station:wmo:42047:1,2008-01-03T07:00:00Z,27.8966,-93.5973,4.0,9.156838974,32.64846952,11.49,'11111222,11111222,11111222' 
TABS,ioos:station:wmo:42047:1,2008-01-03T07:30:00Z,27.8966,-93.5973,4.0,7.585387268,41.73986879,10.11,'11111222,11111222,11111222' 
TABS,ioos:station:wmo:42047:1,2008-01-03T08:00:00Z,27.8966,-93.5973,4.0,8.229763059,29.96048438,10.47,'11111222,11111222,11111222' 
TABS,ioos:station:wmo:42047:1,2008-01-03T08:30:00Z,27.8966,-93.5973,4.0,7.876020569,37.00054559,11.07,'11111222,11111222,11111222' 
TABS,ioos:station:wmo:42047:1,2008-01-03T09:00:00Z,27.8966,-93.5973,4.0,8.02554048,40.19832341,10.3,'11111222,11111222,11111222' 
TABS,ioos:station:wmo:42047:1,2008-01-03T09:30:00Z,27.8966,-93.5973,4.0,7.899398711,38.98800789,12.09,'11111222,11111222,11111222' 
TABS,ioos:station:wmo:42047:1,2008-01-03T10:00:00Z,27.8966,-93.5973,4.0,7.024129839,41.99902992,9.88,'11111222,11111222,11111222' 
TABS,ioos:station:wmo:42047:1,2008-01-03T10:30:00Z,27.8966,-93.5973,4.0,7.07255258,35.33020167,10.71,'11111222,11111222,11111222' 
TABS,ioos:station:wmo:42047:1,2008-01-03T11:00:00Z,27.8966,-93.5973,4.0,6.403124237,51.33986123,9.91,'11111222,11111222,11111222' 
TABS,ioos:station:wmo:42047:1,2008-01-03T11:30:00Z,27.8966,-93.5973,4.0,6.979949857,44.12899685,9.47,'11111222,11111222,11111222' 
TABS,ioos:station:wmo:42047:1,2008-01-03T12:00:00Z,27.8966,-93.5973,4.0,7.239343893,39.4505944,10.51,'11111222,11111222,11111222' 
TABS,ioos:station:wmo:42047:1,2008-01-03T12:30:00Z,27.8966,-93.5973,4.0,6.06248299,46.67061201,11.16,'11111222,11111222,11111222' 
TABS,ioos:station:wmo:42047:1,2008-01-03T13:00:00Z,27.8966,-93.5973,4.0,5.618941181,29.3019285,10.17,'11111222,11111222,11111222' 
TABS,ioos:station:wmo:42047:1,2008-01-03T13:30:00Z,27.8966,-93.5973,4.0,6.545257825,39.91734809,8.51,'11111222,11111222,11111222' 
TABS,ioos:station:wmo:42047:1,2008-01-03T14:00:00Z,27.8966,-93.5973,4.0,6.064956719,42.66102178,9.51,'11111222,11111222,11111222' 
TABS,ioos:station:wmo:42047:1,2008-01-03T14:30:00Z,27.8966,-93.5973,4.0,7.110646947,38.43299383,11.12,'11111222,11111222,11111222' 
TABS,ioos:station:wmo:42047:1,2008-01-03T15:00:00Z,27.8966,-93.5973,4.0,6.21305078,47.21731423,9.48,'11111222,11111222,11111222' 
TABS,ioos:station:wmo:42047:1,2008-01-03T15:30:00Z,27.8966,-93.5973,4.0,6.385272116,44.68243592,9.24,'11111222,11111222,11111222' 
TABS,ioos:station:wmo:42047:1,2008-01-03T16:00:00Z,27.8966,-93.5973,4.0,6.656132511,53.49130389,9.26,'11111222,11111222,11111222' 
TABS,ioos:station:wmo:42047:1,2008-01-03T16:30:00Z,27.8966,-93.5973,4.0,6.519386474,60.60359497,9.45,'11111222,11111222,11111222' 
TABS,ioos:station:wmo:42047:1,2008-01-03T17:00:00Z,27.8966,-93.5973,4.0,6.29114457,52.03681956,9.26,'11111222,11111222,11111222' 
TABS,ioos:station:wmo:42047:1,2008-01-03T17:30:00Z,27.8966,-93.5973,4.0,6.073985512,60.18456646,8.97,'11111222,11111222,11111222' 
TABS,ioos:station:wmo:42047:1,2008-01-03T18:00:00Z,27.8966,-93.5973,4.0,6.015189108,63.86057211,9.17,'11111222,11111222,11111222' 
TABS,ioos:station:wmo:42047:1,2008-01-03T18:30:00Z,27.8966,-93.5973,4.0,6.133596009,59.96510527,8.94,'11111222,11111222,11111222' 
TABS,ioos:station:wmo:42047:1,2008-01-03T19:00:00Z,27.8966,-93.5973,4.0,5.248361649,57.36937834,7.5,'11111222,11111222,11111222' 
TABS,ioos:station:wmo:42047:1,2008-01-03T19:30:00Z,27.8966,-93.5973,4.0,6.181464228,65.83951083,8.29,'11111222,11111222,11111222' 
TABS,ioos:station:wmo:42047:1,2008-01-03T20:00:00Z,27.8966,-93.5973,4.0,5.452063829,51.55322129,7.12,'11111222,11111222,11111222' 
TABS,ioos:station:wmo:42047:1,2008-01-03T20:30:00Z,27.8966,-93.5973,4.0,4.881936091,68.11104583,7.29,'11111222,11111222,11111222' 
TABS,ioos:station:wmo:42047:1,2008-01-03T21:00:00Z,27.8966,-93.5973,4.0,5.966372432,62.66153228,8.92,'11111222,11111222,11111222' 
TABS,ioos:station:wmo:42047:1,2008-01-03T21:30:00Z,27.8966,-93.5973,4.0,6.026084965,66.11437696,8.64,'11111222,11111222,11111222' 
TABS,ioos:station:wmo:42047:1,2008-01-03T22:00:00Z,27.8966,-93.5973,4.0,6.13225081,56.10228,8.46,'11111222,11111222,11111222' 
TABS,ioos:station:wmo:42047:1,2008-01-03T22:30:00Z,27.8966,-93.5973,4.0,6.326357562,66.91996262,8.93,'11111222,11111222,11111222' 
TABS,ioos:station:wmo:42047:1,2008-01-03T23:00:00Z,27.8966,-93.5973,4.0,7.037194043,51.40343826,10.14,'11111222,11111222,11111222' 
TABS,ioos:station:wmo:42047:1,2008-01-03T23:30:00Z,27.8966,-93.5973,4.0,6.488335688,68.57537593,10.16,'11111222,11111222,11111222' 
TABS,ioos:station:wmo:42047:1,2008-01-04T00:00:00Z,27.8966,-93.5973,4.0,5.848828943,73.91966072,8.26,'11111222,11111222,11111222' 
TABS,ioos:station:wmo:42047:1,2008-01-04T00:30:00Z,27.8966,-93.5973,4.0,5.923048202,71.90116288,8.14,'11111222,11111222,11111222' 
TABS,ioos:station:wmo:42047:1,2008-01-04T01:00:00Z,27.8966,-93.5973,4.0,6.206971887,76.67980654,8.78,'11111222,11111222,11111222' 
TABS,ioos:station:wmo:42047:1,2008-01-04T01:30:00Z,27.8966,-93.5973,4.0,5.608074536,79.83182737,8.53,'11111222,11111222,11111222' 
TABS,ioos:station:wmo:42047:1,2008-01-04T02:00:00Z,27.8966,-93.5973,4.0,5.964436268,92.21039786,8.82,'11111222,11111222,11111222' 
TABS,ioos:station:wmo:42047:1,2008-01-04T02:30:00Z,27.8966,-93.5973,4.0,6.96020833,94.36754814,9.74,'11111222,11111222,11111222' 
TABS,ioos:station:wmo:42047:1,2008-01-04T03:00:00Z,27.8966,-93.5973,4.0,5.933371723,91.93208823,8.14,'11111222,11111222,11111222' 
TABS,ioos:station:wmo:42047:1,2008-01-04T03:30:00Z,27.8966,-93.5973,4.0,6.097548688,82.8396146,8.01,'11111222,11111222,11111222' 
TABS,ioos:station:wmo:42047:1,2008-01-04T04:00:00Z,27.8966,-93.5973,4.0,6.159951299,86.74236476,8.38,'11111222,11111222,11111222' 
TABS,ioos:station:wmo:42047:1,2008-01-04T04:30:00Z,27.8966,-93.5973,4.0,6.03304235,77.94464814,8.52,'11111222,11111222,11111222' 
TABS,ioos:station:wmo:42047:1,2008-01-04T05:00:00Z,27.8966,-93.5973,4.0,4.85,95.20553315,7.39,'11111222,11111222,11111222' 
TABS,ioos:station:wmo:42047:1,2008-01-04T05:30:00Z,27.8966,-93.5973,4.0,5.125397546,115.9154872,7.77,'11111222,11111222,11111222' 
TABS,ioos:station:wmo:42047:1,2008-01-04T06:00:00Z,27.8966,-93.5973,4.0,5.388923826,123.5724569,7.18,'11111222,11111222,11111222' 
TABS,ioos:station:wmo:42047:1,2008-01-04T06:30:00Z,27.8966,-93.5973,4.0,5.736497189,108.8143441,8.04,'11111222,11111222,11111222' 
TABS,ioos:station:wmo:42047:1,2008-01-04T07:00:00Z,27.8966,-93.5973,4.0,6.534011019,126.9754584,8.61,'11111222,11111222,11111222' 
TABS,ioos:station:wmo:42047:1,2008-01-04T07:30:00Z,27.8966,-93.5973,4.0,6.54297333,124.2247325,8.04,'11111222,11111222,11111222' 
TABS,ioos:station:wmo:42047:1,2008-01-04T08:00:00Z,27.8966,-93.5973,4.0,5.823856111,112.5142842,8.37,'11111222,11111222,11111222' 
TABS,ioos:station:wmo:42047:1,2008-01-04T08:30:00Z,27.8966,-93.5973,4.0,5.596472103,100.0854752,8.17,'11111222,11111222,11111222' 
TABS,ioos:station:wmo:42047:1,2008-01-04T09:00:00Z,27.8966,-93.5973,4.0,5.496262366,110.4466097,7.46,'11111222,11111222,11111222' 
TABS,ioos:station:wmo:42047:1,2008-01-04T09:30:00Z,27.8966,-93.5973,4.0,5.409260578,105.9894278,7.23,'11111222,11111222,11111222' 
TABS,ioos:station:wmo:42047:1,2008-01-04T10:00:00Z,27.8966,-93.5973,4.0,5.519827896,97.70479502,8.55,'11111222,11111222,11111222' 
TABS,ioos:station:wmo:42047:1,2008-01-04T10:30:00Z,27.8966,-93.5973,4.0,5.62601102,100.0319752,7.48,'11111222,11111222,11111222' 
TABS,ioos:station:wmo:42047:1,2008-01-04T11:00:00Z,27.8966,-93.5973,4.0,4.742931583,94.23234388,6.82,'11111222,11111222,11111222' 
TABS,ioos:station:wmo:42047:1,2008-01-04T11:30:00Z,27.8966,-93.5973,4.0,4.425708983,80.89909662,6.2,'11111222,11111222,11111222' 
TABS,ioos:station:wmo:42047:1,2008-01-04T12:00:00Z,27.8966,-93.5973,4.0,5.09259266,81.75811862,7.46,'11111222,11111222,11111222' 
TABS,ioos:station:wmo:42047:1,2008-01-04T12:30:00Z,27.8966,-93.5973,4.0,6.297150149,87.26894667,8.3,'11111222,11111222,11111222' 
TABS,ioos:station:wmo:42047:1,2008-01-04T13:00:00Z,27.8966,-93.5973,4.0,6.077318488,77.35831606,7.96,'11111222,11111222,11111222' 
TABS,ioos:station:wmo:42047:1,2008-01-04T13:30:00Z,27.8966,-93.5973,4.0,7.052517281,86.58541969,9.49,'11111222,11111222,11111222' 
TABS,ioos:station:wmo:42047:1,2008-01-04T14:00:00Z,27.8966,-93.5973,4.0,6.533421768,84.20173826,9.29,'11111222,11111222,11111222' 
TABS,ioos:station:wmo:42047:1,2008-01-04T14:30:00Z,27.8966,-93.5973,4.0,6.44286427,80.80043653,7.91,'11111222,11111222,11111222' 
TABS,ioos:station:wmo:42047:1,2008-01-04T15:00:00Z,27.8966,-93.5973,4.0,5.72199266,81.55795551,7.53,'11111222,11111222,11111222' 
TABS,ioos:station:wmo:42047:1,2008-01-04T15:30:00Z,27.8966,-93.5973,4.0,5.986401256,79.70331724,7.79,'11111222,11111222,11111222' 
TABS,ioos:station:wmo:42047:1,2008-01-04T16:00:00Z,27.8966,-93.5973,4.0,6.354093169,70.5095717,8.33,'11111222,11111222,11111222' 
TABS,ioos:station:wmo:42047:1,2008-01-04T16:30:00Z,27.8966,-93.5973,4.0,5.455346002,83.47382987,7.76,'11111222,11111222,11111222' 
TABS,ioos:station:wmo:42047:1,2008-01-04T17:00:00Z,27.8966,-93.5973,4.0,5.994430749,106.0770709,7.9,'11111222,11111222,11111222' 
TABS,ioos:station:wmo:42047:1,2008-01-04T17:30:00Z,27.8966,-93.5973,4.0,5.855091801,111.4383485,7.9,'11111222,11111222,11111222' 
TABS,ioos:station:wmo:42047:1,2008-01-04T18:00:00Z,27.8966,-93.5973,4.0,6.796602092,110.4084186,9.63,'11111222,11111222,11111222' 